Terminal Aerodrome Forecast
Issued by NWS Amarillo, TX

Home | Current Version | Previous Version | Text Only | Print | Product List | Glossary On
Versions: 1 2 3 4 5 6 7 8 9 10 11 12 13 14
000
FTUS44 KAMA 010500
TAFGUY
TAF
KGUY 010520Z 0106/0206 VRB05KT P6SM SCT200
     FM011200 35010KT P6SM SCT200
     FM012000 18008KT P6SM BKN200
     FM020500 36022G32KT P6SM SCT120 BKN200=

USA.gov is the U.S. government's official web portal to all federal, state and local government web resources and services.